Weather History for Indian Springs, NV

Change the Weather History Date:

Tuesday, March 19, 2013

  Actual Average (KDRA) Record (KDRA)
Temperature  
Mean Temperature 62 °F -  
Max Temperature 73 °F 69 °F 82 °F (1997)
Min Temperature 53 °F 41 °F 32 °F (2012)
Degree Days  
Heating Degree Days 2    
Growing Degree Days 12 (Base 50)    
Moisture  
Dew Point 19 °F    
Average Humidity 19    
Maximum Humidity 28    
Minimum Humidity 13    
Precipitation  
Precipitation 0.00 in - - ()
Sea Level Pressure  
Sea Level Pressure 30.02 in    
Wind  
Wind Speed 4 mph (SSW)    
Max Wind Speed 12 mph    
Max Gust Speed -    
Visibility 10 miles    
Events      
Averages and records for this station are not official NWS values.
T = Trace of Precipitation, MM = Missing Value Source: NWS Daily Summary

Daily Weather History Graph

Daily Weather History Graph

Search for Another Location

Airport:

Trip Planner

Search our weather history database for the weather conditions in past years. The results will help you decide how hot, cold, wet, or windy it might be!

Date:

Astronomy

Mar. 19, 2013 Rise Set
Actual Time 6:47 AM PDT 6:53 PM PDT
Civil Twilight 6:21 AM PDT 7:19 PM PDT
Nautical Twilight 5:51 AM PDT 7:49 PM PDT
Astronomical Twilight 5:21 AM PDT 8:20 PM PDT
Moon 11:50 AM PDT (3/19) 1:35 AM PDT (3/19)
Length of Visible Light 12h 58m
Length of Day
12h 06m
Waxing Crescent, 51% of the Moon is Illuminated
Mar 19
Waxing Crescent
Mar 27
Full
Apr 2
Last Quarter
Apr 10
New
Apr 18
First Quarter

Hourly Weather History & Observations

Time (PDT) Temp. Dew Point Humidity Pressure Visibility Wind Dir Wind Speed Gust Speed Precip Events Conditions
12:58 AM 56.7 °F 21.0 °F 25% 29.95 in 10.0 mi SE 3.5 mph - N/A   Overcast
1:58 AM 55.2 °F 20.3 °F 26% 29.94 in 10.0 mi WSW 2.3 mph - N/A   Overcast
2:58 AM 54.7 °F 22.3 °F 28% 29.94 in 10.0 mi West 5.8 mph - N/A   Overcast
3:58 AM 57.0 °F 19.8 °F 23% 29.95 in 10.0 mi West 4.6 mph - N/A   Overcast
4:58 AM 60.1 °F 13.1 °F 16% 29.96 in 10.0 mi WSW 2.3 mph - N/A   Scattered Clouds
5:58 AM 54.7 °F 18.0 °F 24% 29.97 in 10.0 mi West 9.2 mph - N/A   Clear
6:58 AM 53.4 °F 15.4 °F 22% 30.01 in 10.0 mi North 2.3 mph - N/A   Overcast
7:58 AM 57.9 °F 15.3 °F 19% 30.04 in 10.0 mi SW 2.3 mph - N/A   Mostly Cloudy
8:58 AM 61.5 °F 14.9 °F 16% 30.06 in 10.0 mi West 2.3 mph - N/A   Overcast
9:58 AM 66.0 °F 14.2 °F 13% 30.08 in 10.0 mi NW 2.3 mph - N/A   Clear
10:58 AM 67.6 °F 16.9 °F 14% 30.09 in 10.0 mi Calm Calm - N/A   Clear
11:58 AM 68.7 °F 17.2 °F 14% 30.09 in 10.0 mi Variable 4.6 mph - N/A   Clear
12:58 PM 70.0 °F 18.3 °F 14% 30.07 in 10.0 mi Variable 3.5 mph - N/A   Clear
1:58 PM 71.6 °F 19.0 °F 14% 30.06 in 10.0 mi North 11.5 mph - N/A   Clear
2:58 PM 72.3 °F 21.0 °F 14% 30.03 in 10.0 mi NNE 8.1 mph - N/A   Clear
3:58 PM 72.7 °F 21.2 °F 14% 30.02 in 10.0 mi East 6.9 mph - N/A   Clear
4:58 PM 72.3 °F 21.0 °F 14% 30.02 in 10.0 mi East 4.6 mph - N/A   Clear
5:58 PM 71.6 °F 20.5 °F 15% 30.01 in 10.0 mi Variable 2.3 mph - N/A   Clear
6:58 PM 70.0 °F 21.9 °F 16% 30.02 in 10.0 mi East 2.3 mph - N/A   Clear
7:58 PM 65.7 °F 23.7 °F 20% 30.02 in 10.0 mi SSE 6.9 mph - N/A   Clear
8:58 PM 64.0 °F 23.5 °F 21% 30.03 in 10.0 mi East 8.1 mph - N/A   Partly Cloudy
9:58 PM 63.9 °F 22.1 °F 20% 30.04 in 10.0 mi SSW 2.3 mph - N/A   Clear
10:58 PM 58.6 °F 23.0 °F 25% 30.05 in 10.0 mi East 2.3 mph - N/A   Mostly Cloudy
11:58 PM 59.2 °F 23.7 °F 26% 30.03 in 10.0 mi SE 4.6 mph - N/A   Overcast